Carbondale, IL

4:39 AM CDT on October 17, 2017 (GMT -0500)
Southern Illinois

Weather History for KMDH - November, 2010

Change the Weather History Date:

Thursday, November 4, 2010

  Actual Average Record
Temperature  
Mean Temperature 50 °F -  
Max Temperature 57 °F 60 °F 85 °F (1924)
Min Temperature 44 °F 38 °F 15 °F (1991)
Degree Days  
Heating Degree Days 16    
Moisture  
Dew Point 31 °F    
Average Humidity 49    
Maximum Humidity 65    
Minimum Humidity 37    
Precipitation  
Precipitation 0.00 in - - ()
Sea Level Pressure  
Sea Level Pressure 29.91 in    
Wind  
Wind Speed 12 mph (NNW)    
Max Wind Speed 21 mph    
Max Gust Speed 37 mph    
Visibility 10 miles    
Events Rain    
Averages and records for this station are not official NWS values.
T = Trace of Precipitation, MM = Missing Value Source: NWS Daily Summary

Daily Weather History Graph

Daily Weather History Graph

Search for Another Location

Airport or City:

Trip Planner

Search our weather history database for the weather conditions in past years. The results will help you decide how hot, cold, wet, or windy it might be!

Date:

Astronomy

Nov. 04, 2010 Rise Set
Actual Time 7:25 AM CDT 5:55 PM CDT
Civil Twilight 6:58 AM CDT 6:22 PM CDT
Nautical Twilight 6:26 AM CDT 6:53 PM CDT
Astronomical Twilight 5:56 AM CDT 7:24 PM CDT
Moon 5:37 AM CDT (11/4) 4:39 PM CDT (11/4)
Length of Visible Light 11h 24m
Length of Day
10h 29m
Waning Crescent, 3% of the Moon is Illuminated
Nov 4
Waning Crescent
Nov 5
New
Nov 13
First Quarter
Nov 21
Full
Nov 28
Last Quarter

Hourly Weather History & Observations

Time (CDT) Temp. Windchill Dew Point Humidity Pressure Visibility Wind Dir Wind Speed Gust Speed Precip Events Conditions
12:52 AM 51.1 °F - 30.0 °F 44% 29.93 in 10.0 mi NW 9.2 mph - N/A   Partly Cloudy
1:52 AM 51.1 °F - 28.0 °F 41% 29.92 in 10.0 mi NW 11.5 mph - N/A   Partly Cloudy
2:52 AM 50.0 °F - 28.0 °F 43% 29.91 in 10.0 mi NW 8.1 mph - N/A   Partly Cloudy
3:52 AM 48.0 °F - 28.9 °F 48% 29.91 in 10.0 mi NW 11.5 mph - N/A   Partly Cloudy
4:52 AM 46.9 °F - 30.0 °F 52% 29.91 in 10.0 mi NW 9.2 mph - N/A   Partly Cloudy
5:52 AM 46.9 °F - 30.9 °F 54% 29.92 in 10.0 mi NW 9.2 mph - N/A   Scattered Clouds
6:52 AM 45.0 °F 40.6 °F 30.9 °F 58% 29.92 in 10.0 mi NW 8.1 mph - N/A   Partly Cloudy
7:52 AM 44.1 °F 39.0 °F 32.0 °F 63% 29.93 in 10.0 mi NW 9.2 mph - N/A   Partly Cloudy
8:52 AM 48.0 °F - 33.1 °F 56% 29.95 in 10.0 mi NW 13.8 mph - N/A   Partly Cloudy
9:52 AM 50.0 °F - 34.0 °F 54% 29.94 in 10.0 mi NNW 12.7 mph - N/A   Clear
10:52 AM 53.1 °F - 34.0 °F 48% 29.93 in 10.0 mi NW 16.1 mph 23.0 mph N/A   Clear
11:52 AM 55.0 °F - 34.0 °F 45% 29.91 in 10.0 mi NNW 16.1 mph 26.5 mph N/A   Partly Cloudy
12:52 PM 55.0 °F - 33.1 °F 43% 29.89 in 10.0 mi NNW 20.7 mph 36.8 mph N/A   Mostly Cloudy
1:52 PM 55.9 °F - 32.0 °F 40% 29.88 in 10.0 mi NW 18.4 mph 28.8 mph N/A   Mostly Cloudy
2:52 PM 53.1 °F - 30.9 °F 43% 29.87 in 10.0 mi NNW 16.1 mph 23.0 mph N/A   Overcast
3:52 PM 53.1 °F - 28.9 °F 40% 29.87 in 10.0 mi NNW 10.4 mph 17.3 mph N/A   Overcast
4:52 PM 53.1 °F - 27.0 °F 37% 29.87 in 10.0 mi NNW 13.8 mph 20.7 mph 0.00 in   Overcast
5:52 PM 52.0 °F - 27.0 °F 38% 29.87 in 10.0 mi NNW 9.2 mph - N/A   Overcast
6:52 PM 51.1 °F - 28.9 °F 43% 29.90 in 10.0 mi North 9.2 mph - N/A   Overcast
7:52 PM 48.0 °F - 32.0 °F 54% 29.91 in 10.0 mi NNW 16.1 mph 24.2 mph 0.00 in Rain Light Rain
8:52 PM 48.9 °F - 28.9 °F 46% 29.91 in 10.0 mi NNW 12.7 mph 23.0 mph 0.00 in   Overcast
9:52 PM 46.0 °F 39.9 °F 28.0 °F 50% 29.94 in 10.0 mi North 13.8 mph - N/A   Scattered Clouds
10:52 PM 44.1 °F 37.1 °F 33.1 °F 65% 29.94 in 10.0 mi NNW 15.0 mph 21.9 mph N/A   Mostly Cloudy
11:52 PM 44.1 °F 37.7 °F 33.1 °F 65% 29.93 in 10.0 mi NNW 12.7 mph - N/A   Overcast